Terminal Aerodrome Forecast
Issued by NWS Denver/Boulder, CO

Home | Current Version | Previous Version | Text Only | Print | Product List | Glossary On
Versions: 1 2 3 4 5 6 7 8 9 10 11 12 13 14 15 16 17 18 19 20 21 22 23 24 25 26 27 28 29 30 31 32 33 34 35 36 37 38 39 40 41 42 43 44 45 46 47 48 49 50
426
FTUS45 KBOU 192042 AAB
TAFDEN
TAF AMD
KDEN 192042Z 1921/2024 17020G30KT P6SM FEW100 SCT150 BKN220
     FM200000 22015G25KT P6SM SCT100 BKN120 BKN220
     FM200300 30015G25KT P6SM SCT090 BKN140 BKN220
     FM200600 VRB06KT P6SM SCT100 BKN220
     FM201000 22008KT P6SM SCT220
     FM201500 VRB06KT P6SM FEW220
     FM202000 29007KT P6SM SCT220=

USA.gov is the U.S. government's official web portal to all federal, state and local government web resources and services.